This is the latest recevied weather packets stored in our database for station/object K5OLV. If no packets are shown the sender has not sent any weather packets the latest 1 day(s).
| Time | Temp. | Humidity | Pressure | Rain* | Wind** | Luminosity | Snow |
|---|---|---|---|---|---|---|---|
| 1836274719 | 20.56° C | 73% | 1016.3 hPa | 0 mm | 1.79 m/s, 126° | 0 W/m² | - |
| 1836274571 | 20.56° C | 72% | 1016.5 hPa | 0 mm | 1.34 m/s, 127° | 0 W/m² | - |
| 1836274417 | 21.11° C | 71% | 1016.4 hPa | 0 mm | 1.79 m/s, 134° | 0 W/m² | - |
| 1836274270 | 20.56° C | 72% | 1016.4 hPa | 0 mm | 1.79 m/s, 147° | 0 W/m² | - |
| 1836274115 | 21.11° C | 71% | 1016.3 hPa | 0 mm | 1.79 m/s, 128° | 0 W/m² | - |
| 1778046436 | 19.44° C | 76% | 1009.3 hPa | 0 mm | 0.89 m/s, 242° | 0 W/m² | - |
| 1778046132 | 19.44° C | 76% | 1009.3 hPa | 0 mm | 1.79 m/s, 166° | 0 W/m² | - |
| 1778045829 | 19.44° C | 75% | 1009.2 hPa | 0 mm | 1.79 m/s, 100° | 0 W/m² | - |
| 1778045528 | 20° C | 75% | 1009.4 hPa | 0 mm | 1.79 m/s, 177° | 0 W/m² | - |
| 1778045226 | 20° C | 75% | 1009.6 hPa | 0 mm | 1.34 m/s, 153° | 0 W/m² | - |
| 1778044923 | 20° C | 74% | 1009.3 hPa | 0 mm | 2.24 m/s, 109° | 0 W/m² | - |
| 1778044621 | 20° C | 74% | 1009.2 hPa | 0 mm | 2.24 m/s, 144° | 0 W/m² | - |
| 1778044317 | 20° C | 73% | 1009.3 hPa | 0 mm | 3.58 m/s, 121° | 0 W/m² | - |
| 1778044015 | 20° C | 72% | 1009.6 hPa | 0 mm | 1.34 m/s, 205° | 0 W/m² | - |
| 1778043712 | 20° C | 72% | 1009.6 hPa | 0 mm | 2.68 m/s, 163° | 0 W/m² | - |
| 1778043408 | 20° C | 72% | 1009.3 hPa | 0 mm | 3.58 m/s, 195° | 0 W/m² | - |
| 1778043105 | 20° C | 71% | 1009.5 hPa | 0 mm | 0.89 m/s, 98° | 0 W/m² | - |
| 1778042803 | 20° C | 71% | 1009.8 hPa | 0 mm | 1.79 m/s, 100° | 0 W/m² | - |
| 1778042500 | 20° C | 70% | 1009.7 hPa | 0 mm | 1.34 m/s, 218° | 0 W/m² | - |
| 1778042197 | 20° C | 70% | 1009.4 hPa | 0 mm | 1.34 m/s, 229° | 0 W/m² | - |
| 1778041895 | 20° C | 70% | 1010 hPa | 0 mm | 1.34 m/s, 161° | 0 W/m² | - |
| 1778041594 | 20° C | 69% | 1009.7 hPa | 0 mm | 1.34 m/s, 91° | 0 W/m² | - |
| 1778041291 | 20° C | 69% | 1009.6 hPa | 0 mm | 1.79 m/s, 101° | 0 W/m² | - |
| 1778040990 | 20° C | 69% | 1009.7 hPa | 0 mm | 3.58 m/s, 200° | 0 W/m² | - |
| 1778040686 | 20° C | 68% | 1009.6 hPa | 0 mm | 0.89 m/s, 303° | 0 W/m² | - |
* Rain latest hour (hover to see other rain measurements)
** Current wind speed in m/s (hover to see current wind gust speed)